Weather History for Eau Claire, WI

Change the Weather History Date:

Wednesday, January 18, 2012

  Actual Average Record
Temperature  
Mean Temperature 9 °F 14 °F  
Max Temperature 22 °F 23 °F 45 °F (1996)
Min Temperature -4 °F 5 °F -36 °F (1967)
Degree Days  
Heating Degree Days 56 51  
Month to date heating degree days 760 913  
Since 1 July heating degree days 3513 4089  
Cooling Degree Days 0 0  
Month to date cooling degree days 0 0  
Year to date cooling degree days 0 0  
Moisture  
Dew Point 4 °F    
Average Humidity 69    
Maximum Humidity 86    
Minimum Humidity 51    
Precipitation  
Precipitation T in 0.03 in 0.70 in (1897)
Month to date precipitation 0.30 0.51  
Year to date precipitation 0.30 0.51  
Snow  
Snow 0.10 in 0.40 in 11.20 in (1996)
Month to date snowfall 4.3 7.4  
Since 1 July snowfall 12.4 23.2  
Snow Depth 3.00 in    
Sea Level Pressure  
Sea Level Pressure 29.88 in    
Wind  
Wind Speed 10 mph (SSW)    
Max Wind Speed 30 mph    
Max Gust Speed 39 mph    
Visibility 8 miles    
Events Snow    
T = Trace of Precipitation, MM = Missing Value Source: NWS Daily Summary

Daily Weather History Graph

Daily Weather History Graph

Search for Another Location

Airport:

Trip Planner

Search our weather history database for the weather conditions in past years. The results will help you decide how hot, cold, wet, or windy it might be!

Date:

Astronomy

Jan. 18, 2012 Rise Set
Actual Time 7:38 AM CST 4:54 PM CST
Civil Twilight 7:06 AM CST 5:26 PM CST
Nautical Twilight 6:30 AM CST 6:02 PM CST
Astronomical Twilight 5:55 AM CST 6:37 PM CST
Moon 3:09 AM CST (1/18) 12:31 PM CST (1/18)
Length of Visible Light 10h 20m
Length of Day
9h 15m
Waning Crescent, 24% of the Moon is Illuminated
Jan 18
Waning Crescent
Jan 23
New
Jan 30
First Quarter
Feb 7
Full
Feb 14
Last Quarter

Hourly Weather History & Observations

Time (CST) Temp. Windchill Dew Point Humidity Pressure Visibility Wind Dir Wind Speed Gust Speed Precip Events Conditions
12:56 AM 1.0 °F - -4.0 °F 79% 30.28 in 10.0 mi Calm Calm - N/A   Clear
1:56 AM -2.2 °F -10.4 °F -5.8 °F 85% 30.19 in 10.0 mi SSW 3.5 mph - N/A   Clear
2:56 AM -0.9 °F - -5.1 °F 83% 30.25 in 10.0 mi Calm Calm - N/A   Clear
3:56 AM -2.9 °F - -6.0 °F 87% 30.25 in 10.0 mi Calm Calm - N/A   Clear
4:56 AM -2.0 °F - -6.0 °F 83% 30.22 in 10.0 mi Calm Calm - N/A   Clear
5:56 AM -2.9 °F -11.2 °F -8.0 °F 79% 30.21 in 10.0 mi SSE 3.5 mph - N/A   Clear
6:56 AM -2.9 °F - -8.0 °F 79% 30.19 in 10.0 mi Calm Calm - N/A   Clear
7:56 AM -2.0 °F -16.6 °F -6.0 °F 83% 30.14 in 10.0 mi SSE 8.1 mph - N/A   Clear
8:56 AM 1.4 °F -8.3 °F -4.0 °F 78% 30.06 in 10.0 mi SSE 4.6 mph - N/A   Clear
9:56 AM 6.1 °F -10.9 °F -0.9 °F 73% 30.09 in 10.0 mi South 13.8 mph - N/A   Clear
10:56 AM 9.0 °F -5.9 °F -0.0 °F 67% 30.04 in 10.0 mi South 11.5 mph - N/A   Mostly Cloudy
11:56 AM 12.0 °F -5.1 °F 1.9 °F 64% 29.97 in 10.0 mi South 17.3 mph - N/A   Partly Cloudy
12:56 PM 15.1 °F -0.6 °F 3.0 °F 59% 29.91 in 10.0 mi South 16.1 mph - N/A   Clear
1:56 PM 17.6 °F 3.7 °F 3.2 °F 53% 29.78 in 10.0 mi South 13.8 mph - N/A   Clear
2:56 PM 19.0 °F 5.0 °F 5.0 °F 54% 29.81 in 10.0 mi South 15.0 mph - N/A   Clear
3:56 PM 19.9 °F 5.7 °F 7.0 °F 57% 29.81 in 10.0 mi SSW 16.1 mph 23.0 mph N/A   Scattered Clouds
4:56 PM 19.9 °F 5.2 °F 9.0 °F 62% 29.77 in 10.0 mi South 17.3 mph - N/A   Overcast
5:56 PM 19.9 °F 6.2 °F 10.0 °F 65% 29.75 in 10.0 mi South 15.0 mph 21.9 mph N/A   Overcast
6:56 PM 19.9 °F 7.3 °F 10.9 °F 68% 29.73 in 10.0 mi SSW 12.7 mph - N/A   Overcast
7:09 PM 19.4 °F 5.5 °F 12.2 °F 74% 29.66 in 4.0 mi SSW 15.0 mph - 0.00 in Snow Light Snow
7:16 PM 19.4 °F 5.0 °F 12.2 °F 74% 29.66 in 2.5 mi SSW 16.1 mph - 0.00 in Snow Light Snow
7:30 PM 19.4 °F 5.0 °F 14.0 °F 80% 29.66 in 1.2 mi SSW 16.1 mph - 0.00 in Snow Light Snow
7:56 PM 19.0 °F 5.6 °F 16.0 °F 88% 29.71 in 1.5 mi SSW 13.8 mph - 0.00 in Snow Light Snow
8:07 PM 19.4 °F 7.2 °F 15.8 °F 86% 29.64 in 2.5 mi SSW 11.5 mph - 0.00 in Snow Light Snow
8:16 PM 19.4 °F 6.6 °F 15.8 °F 86% 29.64 in 5.0 mi SSW 12.7 mph - 0.00 in Snow Light Snow
8:56 PM 21.0 °F 8.6 °F 17.1 °F 85% 29.69 in 7.0 mi SW 12.7 mph 20.7 mph 0.00 in Snow Light Snow
9:08 PM 19.4 °F 1.4 °F 15.8 °F 86% 29.66 in 1.8 mi West 26.5 mph 39.1 mph 0.00 in Snow Light Snow
9:19 PM 17.6 °F 1.3 °F 10.4 °F 73% 29.67 in 2.0 mi West 19.6 mph 34.5 mph 0.00 in Snow Light Snow
9:27 PM 17.6 °F 0.9 °F 10.4 °F 73% 29.68 in 5.0 mi West 20.7 mph 28.8 mph 0.00 in Snow Light Snow
9:56 PM 12.9 °F -3.4 °F 7.0 °F 77% 29.76 in 10.0 mi West 16.1 mph 25.3 mph 0.00 in   Overcast
10:34 PM 12.2 °F -4.8 °F 6.8 °F 79% 29.73 in 1.8 mi WNW 17.3 mph 24.2 mph 0.00 in Snow Light Snow
10:42 PM 10.4 °F -9.5 °F 3.2 °F 73% 29.73 in 3.0 mi NW 23.0 mph 32.2 mph 0.00 in Snow Light Snow
10:56 PM 10.4 °F -10.3 °F 1.4 °F 67% 29.75 in 4.0 mi NW 25.3 mph 34.5 mph N/A   Overcast
11:49 PM 6.8 °F -7.8 °F -2.2 °F 67% 29.79 in 10.0 mi West 10.4 mph 25.3 mph 0.00 in   Overcast
11:56 PM 5.0 °F -12.3 °F -2.9 °F 70% 29.86 in 10.0 mi West 13.8 mph 24.2 mph 0.00 in   Mostly Cloudy